Theta_e
310 310 311 312 312 312 312 312 313 314 314 313 314 314 315 318 318 320 322 321 319 318 322 327 331 333 332 332 331 330 333 334 332 328 328 331 336 337 335 334 331 320 316 318 316 316 316 318 320 320 322 323 324 325 321 324 330 334 339 339 337 335 334 336 334 330 327 327 325 321 325 327 325 322 319 322 331 333 333 339 338 334 334 333 332 331 334 336
310 310 309 311 312 312 312 312 312 313 314 314 314 314 314 317 319 319 322 322 319 318 321 327 331 332 331 332 332 331 332 331 330 328 329 334 336 336 334 332 330 321 316 318 316 316 317 320 320 321 325 324 324 324 323 324 324 334 339 336 338 336 333 334 333 329 325 324 323 322 324 325 325 324 321 324 331 332 331 336 339 342 340 334 333 333 334 334
310 311 308 309 312 312 313 312 312 313 314 315 314 313 313 317 318 318 321 323 321 319 321 326 330 332 333 332 331 332 331 328 328 329 332 335 334 336 336 332 327 320 317 318 317 315 316 319 319 323 328 326 326 326 327 325 322 331 333 333 337 333 331 329 324 324 322 321 324 322 322 322 323 322 320 326 332 330 331 338 340 345 348 340 334 332 333 333
309 311 308 308 311 312 313 313 313 313 314 315 314 313 313 316 318 317 320 323 322 319 320 325 329 332 334 332 332 332 328 327 329 329 333 335 334 335 336 331 323 319 318 317 317 316 315 317 320 326 329 328 328 326 328 327 323 326 326 330 334 329 331 328 319 321 320 319 323 322 322 322 321 320 320 326 331 329 330 334 337 346 353 340 333 333 332 332
307 309 308 308 310 311 312 313 313 313 313 315 315 313 312 315 317 316 319 323 323 320 320 323 327 331 333 331 333 330 327 332 333 330 332 334 334 334 335 332 322 319 318 316 317 316 315 319 321 328 332 331 329 326 329 328 326 326 324 328 331 328 329 327 319 319 318 317 321 322 323 321 319 319 324 329 329 329 328 328 332 341 346 337 333 333 331 332
305 307 307 307 309 310 311 312 313 313 313 314 315 314 312 314 316 317 318 322 323 321 319 321 326 331 333 333 332 328 328 335 332 329 332 332 334 334 335 333 324 319 318 317 317 315 317 321 323 328 331 331 329 328 331 327 324 328 328 328 330 327 324 323 319 318 319 319 321 322 321 319 319 319 322 327 327 329 329 325 329 334 335 334 332 332 332 332
305 306 307 306 307 309 310 311 312 313 313 314 315 314 312 313 315 317 317 321 323 322 319 319 324 329 332 332 330 326 328 333 327 327 331 331 333 334 335 334 328 323 319 316 317 317 321 324 325 329 330 329 329 328 330 327 323 329 331 330 329 326 323 323 320 318 320 320 321 320 317 317 321 320 319 323 324 328 325 315 321 329 330 332 332 332 333 331
306 305 306 306 306 308 310 310 311 312 312 313 315 315 313 313 315 316 317 320 322 322 319 318 321 326 330 329 326 326 328 330 328 327 328 330 333 333 334 334 331 328 321 316 318 318 320 323 324 328 329 329 330 329 328 326 324 327 331 333 328 325 327 324 320 320 320 319 319 317 318 320 322 318 317 322 323 323 320 315 324 331 330 332 333 333 332 331
308 306 306 306 306 307 309 309 310 312 312 313 315 315 314 313 314 316 317 319 322 322 320 318 319 322 328 326 324 329 329 328 330 328 326 330 332 333 333 332 332 329 322 317 318 317 319 322 323 327 330 329 329 329 328 327 328 327 329 334 329 326 329 322 318 321 320 317 317 317 319 320 318 315 317 321 320 321 323 329 336 335 334 334 334 333 331 331
309 307 306 306 306 308 309 309 309 310 312 313 313 315 315 314 315 315 316 318 321 322 320 319 318 320 326 324 325 332 330 326 330 328 326 329 331 332 331 331 332 329 322 318 317 317 319 321 321 326 331 329 327 329 329 329 333 330 327 331 331 327 324 318 317 319 318 316 316 319 321 320 316 314 319 322 321 323 331 341 337 335 338 335 333 333 331 331
309 307 305 305 306 308 309 309 309 310 311 312 312 314 315 314 315 314 315 318 320 321 320 319 318 320 324 323 326 332 328 326 329 328 326 328 330 330 330 332 332 328 322 318 317 317 319 319 319 324 327 329 330 330 331 330 331 330 326 328 329 327 322 316 316 317 315 316 317 318 320 318 316 315 319 322 322 324 334 344 337 336 337 334 334 333 330 331
310 308 305 304 306 308 309 309 308 309 310 311 311 313 314 314 315 315 315 318 320 321 320 319 319 320 324 324 326 329 327 327 328 327 326 327 329 330 331 332 333 332 324 318 318 317 318 318 320 326 327 329 333 333 335 334 329 327 327 329 329 326 326 321 316 317 316 317 318 318 320 319 317 317 317 321 323 322 331 343 339 335 335 334 334 333 332 331
310 308 306 305 307 308 309 308 308 309 310 311 310 312 314 315 316 316 316 318 320 320 320 319 320 321 325 327 326 326 327 328 328 327 326 327 327 328 330 331 332 334 326 318 318 318 319 319 322 327 328 332 334 330 332 332 328 328 326 330 332 326 330 326 316 316 316 316 318 320 323 324 321 319 318 320 321 319 325 336 337 334 334 334 333 333 333 331
310 309 307 307 308 308 308 308 308 309 311 311 311 311 313 314 315 316 317 318 319 320 319 318 320 323 326 328 326 326 327 328 328 327 326 326 326 324 324 325 327 328 323 319 320 322 322 321 323 326 328 334 333 329 332 331 330 331 326 329 334 332 338 334 318 316 317 315 317 321 323 325 324 326 326 321 318 318 320 324 329 332 332 332 333 333 333 331
309 310 309 308 309 309 308 308 308 309 311 311 311 311 312 314 315 315 316 318 319 319 319 319 321 322 325 327 325 325 327 326 327 327 326 326 324 321 320 320 322 322 320 321 323 325 325 324 326 330 332 329 329 334 337 334 333 334 332 333 334 333 340 340 322 316 319 317 316 321 324 325 327 328 329 322 315 316 317 317 321 326 329 330 332 332 333 332
309 309 309 309 309 309 309 309 308 310 311 311 311 311 312 313 314 315 316 318 320 320 319 321 321 321 324 326 324 324 326 326 326 327 327 326 325 321 319 320 322 322 323 324 325 325 326 328 330 333 335 331 331 338 338 336 336 334 335 337 334 332 336 337 326 317 319 319 316 320 324 329 331 325 324 320 314 314 316 315 316 318 323 325 328 330 331 332
308 308 308 309 308 308 308 308 309 310 311 311 311 312 313 313 314 314 315 318 319 319 320 321 321 320 322 323 324 326 325 326 326 326 326 326 325 322 320 322 323 323 324 325 326 326 327 330 330 330 335 337 336 337 338 340 339 334 334 337 334 333 332 334 333 322 317 319 318 319 321 325 328 325 324 321 315 315 316 315 315 315 317 319 322 326 328 330
308 308 309 309 308 308 307 308 309 310 311 311 311 312 313 314 314 315 317 318 317 318 320 320 320 322 323 322 324 326 325 325 326 326 326 325 324 322 321 323 322 323 325 326 327 328 329 330 331 333 336 338 335 333 337 338 338 335 334 337 335 334 333 332 336 326 316 318 319 320 320 319 321 322 322 321 317 317 317 315 315 315 315 315 317 320 323 326
308 307 308 309 309 309 309 309 309 310 310 311 311 312 313 314 315 316 318 318 317 318 321 321 320 324 326 324 323 325 325 325 326 325 324 324 324 323 322 323 322 324 325 326 328 327 329 331 332 336 335 334 333 331 334 336 336 335 333 336 337 335 334 331 333 328 317 317 319 319 320 319 319 319 318 320 319 318 318 315 314 314 314 313 314 315 318 321
308 307 308 309 309 309 309 308 309 310 310 312 312 312 313 314 316 317 315 316 318 318 322 323 321 323 326 324 323 324 325 324 325 323 323 323 323 323 323 323 323 324 324 326 328 326 327 331 332 333 333 331 331 330 333 337 336 334 333 335 336 336 335 330 332 331 319 317 321 318 319 319 319 320 318 318 319 319 320 318 316 315 313 312 313 313 315 317
308 307 308 309 309 309 309 309 309 310 310 312 313 312 313 314 316 316 314 317 318 317 321 322 320 322 323 323 323 324 325 324 324 322 322 323 323 325 325 323 325 326 325 326 327 326 326 330 330 330 331 331 331 332 334 337 334 333 333 334 336 336 335 333 332 330 321 320 325 321 319 320 318 318 319 318 319 319 319 319 318 317 315 313 313 313 313 314
308 307 307 308 308 309 310 310 310 310 311 312 312 312 313 313 314 315 315 318 319 317 319 320 320 322 321 321 323 324 325 326 325 322 321 322 324 326 326 325 326 326 325 326 327 328 328 328 327 326 330 332 332 333 334 334 333 335 334 334 336 335 334 335 330 327 322 323 329 328 323 323 320 319 319 319 319 319 318 318 319 319 318 315 313 313 313 313
307 306 306 307 308 309 310 310 310 311 312 312 312 312 313 312 313 313 316 319 319 318 319 318 319 321 321 322 323 323 326 326 326 323 320 322 325 327 327 326 327 326 325 327 329 331 330 328 325 324 328 332 333 332 332 334 334 337 336 334 337 335 335 338 333 325 323 323 327 329 326 324 322 322 321 319 319 319 319 319 319 319 319 318 316 315 314 314
306 305 306 307 308 309 309 310 311 311 312 312 311 312 313 313 312 313 316 318 318 318 317 316 316 318 320 321 322 323 325 325 325 323 320 322 325 326 327 327 327 326 325 327 329 331 330 328 325 325 328 331 333 332 332 334 335 336 336 335 337 336 335 338 333 324 321 321 322 324 329 329 326 327 325 322 322 321 321 320 320 320 319 320 319 318 316 315
305 305 307 307 308 309 309 310 311 312 312 311 311 312 313 314 313 313 315 316 316 315 315 315 314 316 318 318 320 323 325 325 324 322 320 322 325 326 327 326 326 327 326 327 328 330 329 327 326 327 328 330 332 333 333 334 336 337 336 335 337 337 336 335 327 322 325 329 325 324 334 338 335 334 329 325 326 324 321 321 321 321 320 321 320 318 318 317
305 307 307 307 308 309 309 310 311 311 311 311 311 312 312 314 313 312 315 316 316 314 314 315 316 316 317 317 319 323 326 327 324 321 321 322 323 325 326 326 325 326 326 325 327 329 327 325 326 327 329 330 332 333 333 332 335 337 335 335 337 336 336 334 326 328 335 336 328 323 333 341 338 337 334 329 329 326 323 322 321 320 320 320 320 319 319 318
305 307 307 307 308 309 310 311 310 310 312 311 311 312 313 313 312 312 315 316 316 315 314 315 316 317 317 317 318 324 328 327 324 321 321 322 323 324 327 328 327 326 324 325 328 330 327 325 326 328 329 331 331 332 332 332 335 337 336 336 336 334 334 331 327 333 335 331 327 321 327 337 334 333 336 333 332 330 328 326 323 320 319 319 319 319 319 319
305 306 306 307 308 308 310 311 310 310 311 311 311 312 312 312 311 312 314 317 317 316 315 315 315 315 317 317 318 323 327 326 326 324 321 322 324 325 328 328 328 326 323 325 329 329 325 326 326 327 329 329 330 330 330 331 333 333 336 336 335 334 334 330 326 330 331 330 331 325 323 331 333 331 332 328 329 332 329 328 326 323 321 320 319 319 318 318
305 306 306 307 308 308 310 310 311 310 310 311 311 312 311 310 310 312 314 317 316 314 314 315 314 315 317 318 318 319 321 323 326 325 321 322 324 325 328 327 327 327 324 324 328 328 326 325 325 326 328 328 330 330 329 331 331 329 331 333 332 333 333 332 330 332 333 331 333 329 324 331 335 332 330 326 327 330 328 327 326 324 324 322 320 320 319 318
305 305 306 307 309 310 310 310 311 311 310 311 312 311 310 309 312 315 315 316 316 314 315 315 315 317 319 319 318 317 317 319 322 323 323 323 323 324 326 326 327 328 326 326 328 328 326 324 324 325 326 327 331 330 328 330 329 327 330 332 332 333 332 334 333 332 334 334 333 331 326 330 335 334 330 327 327 329 327 327 327 326 327 325 322 321 320 319
304 305 306 308 309 310 310 311 311 311 311 311 311 310 309 310 313 316 316 315 315 316 317 316 315 317 319 319 320 319 317 317 320 324 325 324 325 325 326 327 327 328 328 328 328 328 327 326 327 327 326 326 329 329 327 328 328 330 334 334 334 333 330 332 332 330 335 336 333 331 326 327 333 336 334 329 328 330 328 328 329 328 329 327 325 323 321 320
305 305 306 308 309 310 310 311 311 311 311 310 310 310 310 313 314 316 317 313 314 316 317 316 317 317 317 318 320 320 319 318 319 324 327 326 327 326 327 328 327 328 330 328 327 329 328 327 327 328 326 325 329 329 327 327 328 331 333 334 336 335 332 335 334 333 337 334 326 324 325 327 330 333 333 330 327 328 327 325 327 329 329 327 325 323 320 320
305 306 307 308 309 310 310 310 311 311 310 310 311 311 312 314 314 316 317 313 314 316 316 316 318 317 316 317 318 319 321 320 318 322 326 326 328 327 326 327 325 327 329 326 327 329 329 328 327 328 327 325 327 329 328 329 329 329 331 334 337 335 336 340 336 334 338 332 323 321 325 329 331 331 329 327 325 325 325 323 324 325 325 324 323 323 322 321
306 307 308 309 309 310 310 310 311 310 309 310 312 313 314 315 315 316 315 312 314 317 316 317 318 317 316 316 317 318 320 321 318 320 325 327 328 327 327 326 325 326 327 324 326 328 330 331 329 327 328 327 326 328 328 329 328 328 330 333 334 334 338 341 339 339 337 329 322 322 328 333 336 331 324 322 324 324 324 323 323 323 321 321 322 322 323 322
308 309 309 309 309 310 310 310 311 310 310 311 313 314 314 316 317 315 313 313 316 317 317 318 318 318 317 315 315 317 320 321 319 320 324 327 328 327 327 326 325 326 327 326 327 327 330 333 329 326 327 327 327 327 326 328 330 329 330 335 334 333 336 334 330 331 333 330 325 324 328 331 331 326 320 319 321 321 321 320 320 322 320 319 320 319 320 320
309 309 310 310 310 310 310 311 311 310 311 312 313 314 315 315 316 315 313 315 318 318 318 320 319 318 318 316 315 317 319 321 321 320 322 326 328 326 325 326 325 325 327 328 329 327 329 331 328 326 328 326 327 328 325 328 331 328 330 334 329 327 333 331 323 323 328 334 331 326 327 330 329 326 323 323 323 322 322 321 319 319 317 317 319 318 318 320
309 308 309 309 309 310 310 311 310 310 311 312 313 314 314 314 314 314 315 318 319 319 319 320 319 317 318 317 315 317 319 321 322 321 321 324 327 326 325 325 324 324 326 329 329 328 329 331 327 326 329 327 325 327 326 327 329 329 330 330 325 325 332 332 329 328 329 332 332 327 326 331 334 332 324 322 325 324 323 323 321 319 318 319 319 316 317 318
307 306 307 307 308 309 310 311 311 311 311 312 313 313 311 311 310 311 315 317 318 319 319 320 320 318 318 317 316 317 319 321 322 322 322 322 325 326 325 325 324 322 324 326 328 327 328 331 327 325 328 328 325 326 328 328 326 327 329 326 327 332 331 330 331 332 330 331 334 328 322 325 330 329 321 319 325 324 321 322 320 319 321 321 321 321 319 318
305 305 305 307 308 309 310 311 311 312 312 313 315 313 309 308 307 306 308 314 319 320 319 320 320 320 319 317 316 318 319 321 322 323 323 322 323 325 325 326 325 323 322 323 326 326 326 330 329 325 325 327 327 327 330 329 325 325 327 326 330 333 331 330 332 334 333 332 334 331 326 326 326 322 320 323 326 323 320 321 320 320 319 319 321 325 325 321
304 304 304 306 309 309 310 311 311 313 313 313 313 311 307 307 306 304 305 310 317 319 320 321 319 319 320 318 317 318 319 320 321 324 325 323 323 324 324 325 325 324 322 322 324 325 324 328 330 325 323 328 330 328 328 329 325 326 329 329 329 329 329 331 331 333 334 332 335 334 331 332 328 320 319 321 322 321 321 321 320 321 320 318 319 322 324 322
303 305 304 306 308 309 309 310 311 312 312 311 310 308 307 307 307 306 305 308 312 314 317 320 319 318 320 320 319 320 321 321 320 323 325 324 324 325 324 324 325 324 324 325 325 325 325 327 327 324 325 330 330 327 326 327 325 326 328 328 328 327 329 333 332 330 330 330 335 334 330 332 329 318 316 319 319 318 319 318 318 322 324 325 323 318 318 319
304 306 305 305 308 309 309 308 307 308 310 309 307 306 307 307 307 307 307 309 311 312 313 316 319 319 319 321 322 321 322 322 321 322 325 324 324 325 324 323 324 324 325 327 325 324 326 327 326 325 326 327 325 325 328 328 324 324 326 326 327 326 327 332 333 330 327 326 330 330 328 329 322 314 315 318 318 318 320 320 319 322 326 329 324 315 314 317
304 305 304 305 306 307 308 308 306 307 308 307 306 306 307 307 307 307 308 310 312 313 315 316 317 317 316 318 320 321 322 322 321 321 324 324 323 324 324 322 323 324 325 327 327 325 325 326 325 325 325 322 321 322 326 328 325 325 326 325 326 327 326 330 331 330 329 327 327 329 330 329 320 315 317 320 319 320 321 321 320 321 323 325 324 319 316 317
303 303 303 303 304 306 308 308 307 307 306 305 306 305 305 306 306 307 309 310 310 313 316 314 313 314 313 312 315 318 320 322 323 322 323 323 323 323 324 323 322 324 324 325 326 325 326 325 324 327 327 324 324 325 325 325 324 325 325 324 325 326 326 328 328 326 328 329 328 330 333 329 320 316 317 319 320 320 319 318 318 319 321 324 326 325 319 316
302 303 302 302 302 304 306 307 308 308 306 306 307 306 306 305 304 305 307 307 306 310 314 312 311 312 312 311 312 314 314 317 322 324 323 323 324 323 323 323 322 323 323 324 324 323 325 326 324 327 329 327 328 330 328 325 324 324 324 324 325 326 325 326 327 325 328 329 327 328 331 326 316 313 315 316 317 319 319 319 316 315 319 323 326 329 325 319
304 304 303 301 301 302 304 305 307 308 307 307 307 307 307 306 304 304 305 306 305 307 311 312 311 313 312 312 314 314 311 313 317 321 323 324 325 325 323 323 323 323 323 325 324 323 325 327 325 325 326 326 328 330 328 325 325 325 325 324 324 325 324 325 327 327 327 328 327 325 326 324 318 317 319 319 320 323 325 323 320 319 320 322 325 328 328 323
305 305 304 304 303 303 304 305 307 307 307 308 307 307 307 306 305 304 305 306 305 307 310 310 311 314 313 312 315 314 312 312 313 318 321 322 322 322 321 322 323 324 324 324 322 322 324 324 324 324 324 323 326 328 326 325 325 326 325 324 324 324 325 325 328 327 326 328 328 324 324 324 321 323 329 329 326 326 326 325 323 322 321 323 325 326 326 323
305 306 305 305 305 305 306 306 306 307 307 308 307 306 306 305 306 306 306 305 305 306 310 311 311 313 313 313 315 314 313 313 313 315 317 318 319 321 320 321 323 324 324 322 320 321 323 323 323 324 324 323 326 328 327 324 325 325 325 324 323 324 325 325 326 326 325 326 327 324 323 322 320 322 329 328 325 324 324 321 318 316 317 322 325 326 327 327
303 304 304 305 305 305 306 306 306 306 307 308 307 305 305 306 307 307 306 306 306 307 309 311 311 311 312 314 315 315 313 315 316 314 314 316 319 321 323 322 322 323 323 321 320 321 322 323 323 324 324 323 325 329 327 324 324 325 325 324 324 323 324 324 324 324 324 324 324 323 323 321 318 319 322 322 321 322 321 317 313 314 318 321 325 326 327 327
304 304 303 304 304 304 305 305 306 306 306 307 307 306 305 306 307 307 306 306 308 308 308 311 310 309 311 312 314 315 313 315 318 315 313 316 317 319 322 321 321 324 324 321 320 320 322 324 324 324 324 323 324 327 327 325 325 325 325 324 324 323 323 324 323 323 324 324 323 322 323 321 318 317 317 318 319 319 317 315 314 317 320 321 324 326 325 324
302 304 303 304 305 304 305 305 305 306 306 307 307 306 305 306 306 306 305 304 306 308 308 309 309 309 310 310 312 314 311 312 315 313 311 315 316 317 319 317 317 324 325 321 319 319 321 325 325 324 324 324 323 324 325 325 325 326 325 325 324 324 323 323 323 323 323 323 324 323 323 321 319 318 317 317 318 318 317 317 316 318 321 323 323 323 323 325
300 302 303 304 305 304 305 305 305 306 306 306 306 306 306 306 305 306 306 304 305 307 307 307 307 308 309 310 311 310 307 307 308 307 308 312 313 315 316 313 314 319 321 320 321 321 321 323 324 324 324 324 323 322 323 324 326 326 325 324 324 323 323 323 322 322 322 322 323 323 322 320 319 321 320 318 317 317 317 317 317 317 319 321 321 320 322 323
Wind_Speed
24 25 25 25 24 25 27 28 29 29 29 28 28 28 27 26 27 28 28 26 27 28 28 27 25 27 25 23 22 21 22 24 23 21 19 25 35 34 24 25 22 10 13 18 14 13 9 8 9 6 6 3 1 2 1 2 2 3 3 2 3 4 4 4 6 6 4 3 5 5 5 8 4 2 2 2 5 3 2 2 3 3 4 2 5 3 24 29
25 25 26 26 25 25 26 27 29 29 29 28 28 29 28 27 27 30 29 27 27 29 31 27 24 26 26 25 23 22 21 23 22 20 28 35 34 33 25 22 23 14 16 20 17 17 11 7 9 6 4 2 1 1 2 0 2 3 3 2 4 4 4 5 6 5 4 3 4 5 5 6 6 5 3 2 2 1 2 2 5 4 4 3 2 14 27 28
26 26 26 26 26 25 26 27 28 29 29 28 28 30 29 28 28 30 29 27 27 30 33 30 24 24 26 25 23 23 19 14 12 19 36 39 31 32 28 23 23 17 17 22 20 20 15 10 11 7 3 1 1 1 3 1 1 2 3 2 5 4 4 4 6 6 6 4 5 5 3 4 4 4 3 4 4 2 5 5 0 3 6 0 6 17 24 25
27 26 26 26 26 26 26 27 27 28 29 28 28 29 30 29 28 29 30 29 26 29 33 31 26 23 25 24 23 22 14 5 7 18 37 39 33 32 29 26 24 18 18 22 20 19 16 12 10 5 4 1 2 2 3 2 2 2 3 4 5 3 3 4 6 6 5 5 6 6 4 2 3 3 3 6 6 4 7 7 7 9 8 6 7 14 21 22
29 27 27 27 26 27 27 27 27 28 29 29 28 29 30 30 29 29 30 29 26 27 31 31 28 25 25 23 23 21 12 2 6 20 36 37 36 35 29 28 25 18 18 20 16 15 14 11 7 3 3 2 0 1 3 4 4 2 3 5 4 4 3 5 5 5 4 4 6 7 6 4 3 2 4 10 7 6 7 8 10 9 10 12 12 15 18 18
30 28 28 28 27 27 27 28 27 27 28 29 29 29 30 31 29 29 29 30 27 26 29 31 30 26 26 25 26 23 13 4 1 13 35 38 38 38 30 29 28 19 17 17 14 12 11 7 6 4 3 3 5 4 4 3 5 3 3 2 4 4 3 3 3 5 5 6 6 6 5 4 5 1 4 9 9 7 6 7 9 8 11 16 16 16 15 14
31 29 29 28 28 27 27 28 28 28 27 28 29 29 31 31 30 29 29 30 28 26 27 30 31 28 27 26 25 19 10 11 5 3 22 38 41 38 32 31 31 24 19 17 13 11 8 7 6 6 5 4 6 6 4 4 5 4 3 3 5 4 4 4 2 3 5 7 7 5 4 5 7 4 3 6 11 8 6 4 7 9 12 15 14 14 15 17
31 30 29 28 29 28 27 29 28 28 27 28 28 28 31 31 31 30 28 29 28 26 27 29 32 29 27 27 19 8 7 18 24 11 9 32 41 36 33 31 33 28 22 20 15 12 9 10 9 5 5 5 6 6 4 4 3 5 6 4 3 3 5 4 2 2 3 4 4 6 5 6 8 5 4 7 12 9 4 1 6 10 11 11 12 14 14 15
31 30 29 29 29 28 28 29 29 29 27 28 28 27 30 31 31 30 29 30 29 28 26 27 31 29 30 25 12 6 15 26 36 23 10 27 39 36 36 33 34 30 22 21 18 15 10 9 10 6 6 6 6 6 5 4 3 7 8 4 3 3 5 3 3 5 3 3 3 6 5 6 4 3 2 8 10 5 2 4 7 9 10 10 10 12 13 13
31 31 30 29 29 29 29 28 29 30 28 28 28 27 29 30 31 31 30 30 29 29 26 26 28 29 29 20 9 11 24 29 35 28 14 24 37 37 38 35 35 31 23 19 18 16 10 9 10 5 4 3 4 5 5 6 4 5 7 5 5 3 3 1 4 6 2 2 4 7 7 5 1 1 4 8 6 5 7 5 6 9 10 11 10 11 14 15
31 31 31 29 29 29 29 28 29 30 29 29 28 28 28 30 31 31 31 29 30 30 26 26 25 30 27 15 10 12 18 25 33 32 18 23 38 39 40 37 35 33 25 16 16 18 13 14 13 6 2 3 5 4 3 6 2 3 7 4 5 3 3 0 3 4 1 2 4 6 5 3 3 2 6 6 4 7 8 6 7 9 10 11 12 11 12 15
30 31 30 29 30 29 29 29 29 30 30 29 29 29 28 30 31 31 32 30 31 30 27 26 25 31 24 9 13 14 15 23 33 31 19 25 39 40 41 40 37 38 31 18 15 21 17 16 17 7 4 5 5 3 3 5 3 2 5 4 5 3 4 4 3 3 4 3 4 5 3 4 5 8 8 6 4 6 8 8 8 10 9 9 11 9 10 14
30 30 29 29 30 30 30 29 29 30 29 29 30 29 28 30 31 31 31 30 31 31 29 26 25 32 21 6 13 16 14 20 30 28 17 24 35 33 37 37 36 38 36 26 18 21 19 17 19 10 3 5 4 3 1 2 4 2 3 2 3 1 4 6 3 3 5 4 4 5 3 7 11 10 7 6 6 7 7 8 8 9 8 8 9 8 9 12
31 29 28 29 29 30 30 29 30 29 29 29 29 29 29 30 32 32 31 30 31 30 28 26 27 28 17 7 9 15 19 17 25 29 20 24 28 23 27 29 29 31 31 25 16 12 14 16 15 6 1 3 3 1 3 3 1 3 1 1 2 3 5 6 3 7 6 3 4 6 4 8 10 8 6 7 7 9 10 9 9 9 8 8 8 9 10 11
31 29 28 28 29 29 29 30 30 29 29 29 29 29 29 29 31 32 31 30 30 30 27 25 28 21 8 8 7 13 23 20 25 33 27 27 26 17 19 23 22 22 22 19 16 10 8 12 10 5 1 1 3 3 3 2 1 2 3 2 2 4 4 6 3 9 8 2 3 6 4 8 9 7 7 6 7 10 11 10 9 9 9 9 8 9 9 11
31 29 28 28 28 29 29 30 30 29 29 29 29 28 28 28 30 31 31 30 29 30 25 20 27 21 5 5 8 11 19 22 33 38 31 30 29 20 21 23 18 19 19 15 18 15 7 7 4 2 3 2 4 5 4 1 2 4 6 4 4 6 4 3 3 7 8 4 3 6 5 5 4 4 4 1 6 8 8 9 9 9 9 9 8 8 9 9
32 30 29 28 29 29 29 30 31 30 29 29 28 27 27 27 28 29 29 31 29 28 25 16 21 21 7 2 7 10 15 21 33 37 34 34 32 28 26 19 13 17 17 13 16 15 5 3 1 1 3 2 4 5 4 8 7 4 4 3 3 5 5 3 3 4 5 4 5 7 7 9 6 6 5 2 5 7 7 9 8 8 8 8 8 7 9 9
32 30 29 28 28 28 29 31 31 30 30 30 28 27 26 25 27 27 26 29 24 21 23 17 16 13 8 8 5 8 19 23 28 34 37 34 31 34 27 15 13 17 13 6 6 8 2 1 1 1 3 3 6 9 11 11 9 8 7 5 2 2 5 7 4 3 6 5 6 6 9 14 10 9 11 5 5 6 8 8 7 8 8 8 8 8 9 10
32 30 29 27 27 27 29 31 31 30 30 29 27 24 21 19 20 21 23 24 15 10 10 10 13 7 4 13 10 6 16 23 27 29 33 32 29 31 25 18 18 16 11 4 4 6 4 3 2 4 8 11 12 16 14 7 9 10 8 6 5 4 6 6 4 4 8 6 6 9 11 13 11 11 14 9 5 6 7 6 6 7 7 8 8 8 9 10
32 30 28 27 27 28 28 30 31 30 30 28 25 18 12 11 10 10 12 14 12 8 4 8 18 15 5 6 11 11 11 16 20 20 30 36 30 23 17 15 14 10 10 11 8 7 6 6 9 12 14 15 15 15 10 4 7 9 7 6 8 8 6 4 4 4 6 6 7 11 12 12 11 13 15 9 5 6 8 8 8 8 8 8 9 9 10 11
31 30 28 26 28 28 28 30 30 31 31 29 26 15 7 12 10 6 8 7 15 17 7 4 15 18 5 4 15 21 11 7 10 16 29 34 29 20 11 12 13 8 10 13 10 6 6 9 16 18 15 13 11 8 5 5 8 9 9 8 8 8 6 4 5 3 4 4 5 7 8 13 13 14 13 8 6 8 10 10 11 11 10 9 9 11 11 10
31 30 29 27 27 28 28 30 30 31 30 29 26 13 8 20 17 11 13 6 14 22 11 3 7 11 4 3 17 24 13 5 6 12 23 24 21 17 9 11 15 11 10 12 10 7 8 14 20 17 11 9 9 7 5 6 9 8 7 7 7 5 1 2 2 1 4 4 4 4 6 11 12 12 12 11 10 9 10 12 13 12 11 10 9 10 11 10
31 30 29 27 27 29 29 31 31 30 31 29 25 17 17 28 25 18 15 2 7 18 13 6 5 7 5 3 13 18 12 12 9 10 21 21 14 13 11 13 15 12 12 14 12 11 11 15 18 15 10 12 11 9 7 4 6 6 6 6 5 4 4 3 3 2 4 3 2 1 5 9 8 8 12 13 11 9 10 12 12 11 11 11 11 10 11 11
31 30 29 28 28 28 29 31 30 30 34 30 28 29 28 29 28 24 13 1 4 10 10 7 3 5 5 4 13 15 9 10 12 14 22 21 11 8 12 14 14 11 12 18 18 16 9 5 13 16 13 14 11 10 10 6 4 3 5 7 4 5 6 4 2 2 1 1 1 3 5 8 6 8 13 10 6 8 11 11 12 12 11 11 10 10 10 11
31 29 29 29 28 29 30 27 26 31 32 28 30 37 34 26 29 28 12 0 4 3 7 9 3 5 6 4 11 13 6 6 9 16 22 24 18 10 9 9 10 12 17 21 18 14 8 5 16 18 13 15 13 12 13 9 6 4 6 7 6 7 6 4 4 3 1 3 2 3 3 8 4 7 13 7 2 8 8 9 14 13 10 10 10 11 11 11
30 28 29 29 28 30 26 16 23 32 25 21 31 38 35 30 32 28 8 1 5 3 7 10 3 8 11 4 4 8 8 7 7 15 21 26 22 11 8 7 4 12 18 16 9 5 5 7 15 17 15 17 14 11 13 12 8 6 5 7 6 7 6 5 6 3 3 4 3 3 5 7 4 6 10 6 5 10 8 9 13 11 9 10 10 12 12 12
29 28 29 29 29 31 21 9 22 28 15 19 35 38 33 33 34 24 6 2 6 4 7 7 5 11 13 9 9 8 6 6 8 11 17 22 17 5 8 11 5 9 11 7 6 4 8 12 15 18 17 15 13 12 14 15 10 4 7 11 6 6 6 5 6 4 4 2 3 1 3 5 8 7 5 3 6 10 10 11 12 9 11 11 11 13 13 13
29 28 29 29 31 34 25 14 19 22 20 27 38 40 35 34 31 17 4 6 5 6 6 4 4 8 8 10 13 7 3 11 11 11 17 23 15 5 8 15 12 12 12 11 12 9 14 17 19 21 17 13 13 11 12 14 8 2 6 10 6 6 5 3 4 2 1 2 3 3 3 3 9 6 2 0 5 11 14 15 13 10 11 12 13 13 12 13
29 29 29 31 31 34 34 23 18 23 30 32 36 43 38 29 20 8 3 6 3 5 5 6 5 5 6 9 11 8 5 6 7 10 18 19 10 3 5 13 13 14 15 15 11 5 8 14 17 18 13 10 8 7 12 14 6 1 7 9 6 5 5 4 3 3 3 2 7 6 5 5 9 7 3 1 4 12 14 12 11 10 10 10 11 12 12 12
30 29 30 31 29 31 32 26 23 27 30 33 40 43 31 17 9 5 8 6 3 3 4 6 10 10 11 10 9 11 10 3 1 9 14 12 8 2 3 4 6 9 13 11 5 2 5 8 10 10 9 7 7 8 9 11 7 6 8 8 7 5 5 4 2 4 2 5 7 9 10 7 8 8 7 5 7 11 11 9 8 7 8 10 10 11 12 11
30 30 31 31 30 29 23 17 24 30 31 39 42 36 20 7 5 7 9 3 3 5 6 7 12 15 17 15 9 12 13 7 4 10 12 9 9 5 4 4 3 5 10 9 5 5 8 9 7 6 8 10 11 7 4 7 9 7 6 6 4 2 3 3 3 3 2 6 5 7 10 9 9 6 5 7 8 8 9 9 8 8 10 12 11 10 10 9
29 30 31 32 31 30 22 18 29 35 39 47 37 20 9 5 5 7 6 5 4 7 9 9 12 15 18 18 13 13 12 7 7 10 13 14 10 8 11 10 8 7 7 8 7 6 7 9 9 6 8 13 14 7 3 5 8 5 6 7 5 1 0 2 1 1 4 5 2 2 6 7 11 6 4 9 9 8 9 9 9 10 11 12 10 9 8 7
29 29 30 32 30 33 31 28 34 38 45 48 27 9 7 6 7 8 6 5 5 5 9 11 13 17 18 18 16 14 11 9 9 9 12 17 14 12 16 16 16 11 6 10 11 7 6 7 9 7 5 12 15 10 6 5 8 9 9 10 8 5 4 7 6 2 4 4 1 2 4 4 8 4 8 15 13 11 11 9 10 10 10 11 9 8 7 6
28 27 28 30 31 35 34 31 39 45 44 34 16 9 10 7 6 11 8 4 3 3 10 13 15 17 18 18 17 14 11 9 9 7 9 15 14 12 14 16 19 10 4 10 9 10 11 7 12 14 9 14 17 15 14 10 10 11 8 6 7 6 6 7 6 4 3 1 1 2 3 4 5 2 6 11 10 9 8 8 9 8 9 9 8 8 8 8
26 27 27 26 29 34 33 34 46 53 39 20 10 9 11 7 6 10 9 4 3 5 10 13 15 15 14 16 17 16 14 9 11 9 8 11 12 13 13 14 19 11 7 10 5 7 10 5 11 14 9 17 18 12 13 12 8 7 4 4 6 5 4 1 2 3 3 2 1 3 3 4 4 6 9 6 6 8 8 8 7 9 10 7 7 9 8 9
24 24 23 24 28 33 37 41 50 51 31 12 7 7 9 6 3 6 8 6 4 8 13 12 12 12 11 12 13 16 14 8 12 10 6 7 11 16 16 12 19 18 13 12 5 6 8 5 12 12 8 19 20 12 15 13 9 5 4 7 4 3 7 4 1 1 4 2 4 3 6 5 3 9 11 10 11 10 10 10 9 10 9 7 8 9 8 9
20 17 16 20 28 35 42 47 50 43 21 8 8 7 5 3 2 3 6 7 7 11 14 10 9 10 11 11 10 16 15 8 10 9 5 6 8 15 18 12 17 22 17 13 5 5 8 3 9 14 14 19 16 13 15 10 7 8 8 8 4 4 3 4 1 3 3 4 4 2 8 5 1 6 6 7 13 14 14 14 10 8 7 8 9 9 9 10
18 13 8 16 30 38 45 51 44 28 13 7 8 6 3 2 2 2 2 5 7 11 12 8 7 9 11 12 11 15 17 11 10 9 6 5 3 9 17 12 14 21 19 14 6 4 6 3 2 10 12 11 7 10 10 4 1 3 7 8 6 3 2 2 3 2 2 5 4 3 5 4 7 8 2 4 11 14 15 13 9 8 8 9 9 9 10 9
14 8 2 13 34 41 48 51 34 15 8 8 9 7 3 1 1 1 2 2 6 9 11 6 4 4 7 11 12 14 17 15 13 9 6 6 2 6 14 11 13 21 20 15 8 4 6 4 2 4 4 9 7 7 10 7 2 4 4 5 3 3 4 4 4 2 3 5 5 4 2 4 9 8 7 10 11 10 11 9 8 11 10 9 9 8 9 8
8 4 2 12 35 45 49 41 20 9 9 7 7 6 3 2 2 1 3 1 3 4 7 5 4 6 7 10 10 11 14 16 16 11 7 8 5 6 12 10 12 20 20 15 9 4 3 4 4 1 3 9 9 9 15 17 9 5 7 7 6 4 2 2 3 2 3 5 5 5 6 8 7 5 12 15 12 11 13 10 9 9 8 8 9 9 8 8
4 4 3 10 32 46 40 20 6 7 6 2 3 3 3 3 3 1 3 3 1 2 3 5 5 6 7 8 9 8 9 13 15 10 7 9 8 6 11 13 12 17 18 13 9 5 2 3 6 5 5 10 12 12 15 18 17 13 12 13 13 10 5 5 7 3 2 4 4 4 9 10 5 5 10 13 13 15 15 11 7 6 7 9 9 9 8 7
4 4 4 13 30 38 24 5 2 4 2 3 4 3 4 5 4 2 2 3 2 2 3 4 3 4 4 4 4 6 7 10 14 11 6 10 11 7 12 18 16 16 16 12 11 7 3 3 5 4 4 6 7 6 3 5 13 12 8 9 10 9 8 8 9 5 2 4 3 2 6 9 4 7 9 10 11 12 8 6 5 6 8 9 8 8 7 7
4 3 4 13 23 24 13 4 4 4 2 4 5 4 4 4 3 3 0 2 2 2 3 3 1 2 3 1 1 5 8 8 13 14 8 9 12 8 13 21 20 16 14 11 10 6 2 4 5 3 1 1 2 1 5 4 8 9 5 4 8 10 11 8 6 4 3 5 4 2 8 10 4 6 8 6 5 6 6 5 6 6 6 7 8 7 6 7
3 3 3 7 12 12 8 5 7 6 4 5 5 4 4 3 3 4 2 0 1 2 3 2 1 1 3 3 2 4 7 6 10 13 9 8 10 9 13 21 21 17 14 12 12 8 4 6 8 6 3 1 2 2 2 4 4 8 6 7 10 14 13 4 2 2 3 9 10 6 12 12 3 1 3 5 6 7 9 8 6 6 6 6 7 6 6 6
4 3 2 1 2 4 3 3 6 9 8 8 7 5 4 4 4 3 3 3 1 2 4 1 1 4 4 4 4 2 2 2 5 7 5 6 7 7 12 21 21 17 16 16 13 11 7 7 9 10 9 8 8 11 11 10 9 9 12 14 15 19 18 11 6 7 8 12 12 9 14 11 2 3 2 4 5 7 9 8 5 6 7 6 6 6 5 5
5 3 3 2 2 1 1 1 5 9 10 10 7 4 4 5 3 2 3 3 1 2 4 2 2 5 3 4 5 3 3 4 2 5 7 8 6 3 8 19 22 19 19 17 12 8 3 4 10 13 13 16 16 15 17 17 14 13 18 23 23 24 25 19 12 11 12 14 12 14 21 14 1 1 5 5 6 7 7 8 6 5 6 6 6 6 5 5
3 3 4 4 1 2 2 2 6 7 7 8 5 3 5 7 5 1 2 1 0 1 3 2 2 4 5 6 5 4 2 3 4 5 7 7 4 2 3 13 20 22 21 14 11 8 3 5 14 16 18 19 11 5 10 15 16 18 21 25 24 24 25 21 17 17 16 14 12 16 23 19 8 3 6 6 7 6 6 7 6 5 6 5 5 5 5 5
2 2 2 1 1 4 5 6 9 8 8 6 4 3 7 8 5 3 2 2 1 1 2 2 1 2 7 9 5 5 6 2 2 3 3 3 3 1 0 5 13 21 19 10 8 8 5 8 16 17 20 19 6 7 11 16 17 20 22 24 23 22 23 23 22 23 19 14 15 18 20 19 12 6 8 9 8 7 7 7 5 4 5 5 5 5 6 6
2 3 1 1 2 4 6 9 12 11 9 7 4 3 6 8 6 3 2 3 2 1 0 3 3 3 5 7 5 5 7 6 2 4 2 2 3 4 4 3 7 14 16 9 6 7 4 8 15 15 17 17 8 7 11 15 16 18 19 21 21 21 22 22 22 24 21 15 15 17 17 15 11 11 12 12 9 7 5 3 3 3 4 5 5 6 7 7
2 3 3 3 5 5 7 9 10 10 7 4 5 4 4 7 7 4 2 3 4 2 1 4 6 4 3 4 4 4 6 5 5 6 5 5 4 3 3 3 3 9 13 9 6 6 6 9 12 10 11 13 9 7 10 14 17 18 19 19 18 17 18 18 19 20 18 15 16 18 17 15 12 12 14 13 10 7 5 4 4 5 6 5 6 7 8 8
1 2 3 7 7 5 7 7 6 8 5 2 4 5 5 7 9 7 4 3 3 4 4 7 8 4 3 3 3 2 2 1 2 5 7 8 6 4 3 2 4 9 12 10 7 6 7 8 8 8 9 10 10 11 13 14 16 20 21 19 17 16 16 18 20 21 20 20 22 20 16 17 15 10 11 11 12 13 14 10 7 6 6 7 7 8 8 8
2 4 4 6 6 3 5 7 6 7 3 2 5 4 4 8 9 8 6 3 3 3 4 7 8 4 3 3 3 2 2 3 2 1 4 4 2 2 4 4 5 5 6 8 8 8 8 8 7 8 8 8 11 15 15 13 14 16 18 19 20 20 21 21 22 25 24 21 19 18 19 19 10 7 9 11 14 17 18 14 10 10 9 8 8 8 8 8
Wind_Direction
232 235 237 237 238 238 239 239 241 244 243 241 239 239 238 235 236 236 233 231 230 225 225 222 218 221 220 223 226 228 231 225 217 207 210 220 220 219 221 219 212 215 212 204 204 196 190 199 195 182 161 135 93 145 76 7 62 76 101 147 205 181 199 185 182 192 168 226 226 208 188 154 171 209 184 37 45 51 78 14 327 321 345 233 275 201 162 164
230 232 235 237 237 238 239 238 239 242 243 240 238 239 238 234 234 235 232 229 227 224 224 220 215 218 221 222 222 227 228 220 216 214 221 224 222 219 219 216 209 214 207 199 202 192 182 195 183 154 132 117 285 123 107 310 80 107 122 166 224 186 196 191 176 190 187 214 200 187 186 171 177 170 148 138 214 352 135 282 344 329 324 9 154 156 158 162
229 229 233 235 235 237 238 239 238 239 241 239 237 238 238 235 233 235 232 228 226 224 223 218 211 215 223 219 220 227 217 213 226 227 227 225 223 220 218 211 202 206 205 201 206 200 195 188 169 140 91 78 290 102 121 153 140 158 132 181 237 207 216 205 180 199 206 189 158 173 183 181 191 159 148 162 181 224 201 215 316 248 252 113 144 155 158 163
229 227 231 232 233 235 236 239 239 238 240 239 237 236 237 236 234 236 233 228 226 226 223 217 208 212 222 215 217 219 194 208 254 228 228 223 220 220 216 208 196 198 204 204 209 209 201 177 158 130 98 143 322 56 146 190 179 158 144 194 230 187 215 219 186 197 200 176 155 149 132 173 212 150 146 146 147 250 244 223 200 204 201 166 163 164 163 166
229 227 229 230 231 233 235 237 239 238 238 239 237 235 236 235 236 236 233 229 226 227 224 216 207 211 220 214 212 198 159 238 233 218 226 220 217 217 212 205 196 195 199 204 210 202 191 166 141 103 91 145 36 84 206 205 141 147 205 209 216 154 197 237 183 172 165 137 130 132 145 177 165 129 158 156 168 230 232 220 208 200 175 165 169 169 168 173
229 228 228 230 231 233 235 235 238 238 236 239 237 233 234 234 236 236 233 229 225 228 226 216 208 209 217 214 204 186 167 238 165 210 222 216 216 214 205 200 197 199 198 201 202 180 172 157 144 147 129 152 179 189 220 199 136 173 240 229 225 185 198 243 170 178 155 121 142 160 169 147 127 203 189 174 203 225 229 218 201 195 175 166 163 166 172 179
228 228 228 229 231 232 234 234 236 238 236 237 237 234 232 233 234 235 234 229 225 229 226 219 210 209 216 206 195 189 195 232 239 263 222 214 215 210 201 196 197 204 200 195 187 170 163 159 171 163 149 165 192 210 215 177 148 172 222 242 228 199 208 227 156 185 161 148 179 160 124 145 166 199 161 195 233 240 269 256 181 167 163 158 158 171 182 185
226 227 228 228 229 230 232 233 234 237 235 235 237 234 231 231 232 233 233 229 225 226 226 222 212 210 213 197 181 194 228 223 224 259 251 213 211 205 197 194 200 204 197 196 185 171 167 167 182 159 161 200 192 199 187 136 142 191 205 217 211 205 226 227 144 193 178 167 162 121 138 200 188 163 145 216 243 247 272 302 144 142 150 163 172 182 187 189
224 225 226 227 228 228 230 232 232 234 235 234 237 235 230 229 230 231 232 229 225 225 226 222 215 213 213 199 168 201 230 221 217 234 261 211 206 200 195 193 198 198 191 199 193 178 173 176 193 167 168 204 179 183 181 162 214 213 189 168 172 236 248 200 182 219 210 192 133 134 206 248 205 158 212 234 238 230 122 112 139 142 156 181 186 188 191 193
222 224 226 227 227 227 228 231 232 233 233 233 235 234 232 228 227 230 231 229 224 225 226 222 217 213 209 196 168 213 224 220 213 219 238 208 199 193 191 192 192 190 186 194 195 185 177 180 186 156 148 176 168 172 183 188 213 201 168 158 185 242 299 136 205 236 231 251 186 171 219 262 307 204 238 249 228 150 114 128 159 158 173 189 191 197 198 200
221 223 226 226 226 227 226 229 232 232 232 232 233 233 233 229 226 227 229 227 222 223 226 222 216 211 206 189 193 212 204 211 211 212 226 206 192 187 188 191 188 184 182 186 197 193 186 183 166 127 156 176 163 161 215 203 166 172 159 167 229 271 326 154 223 242 142 264 200 169 235 292 7 240 219 237 212 152 145 159 177 181 189 194 195 200 200 208
220 223 225 225 225 225 225 228 231 233 232 231 232 231 231 230 226 225 227 225 219 222 226 223 215 211 211 204 219 211 182 203 206 205 220 203 192 190 190 191 189 187 183 180 198 198 194 185 162 152 212 167 145 153 235 207 135 137 138 146 242 289 295 232 207 210 159 202 181 139 293 278 235 230 208 200 181 163 168 175 188 197 199 200 201 203 205 214
218 221 224 224 223 224 225 227 229 232 233 231 231 229 229 228 225 223 224 224 219 219 224 224 216 211 215 236 226 210 189 201 198 200 222 200 190 189 188 191 191 191 189 184 188 194 196 188 170 172 193 136 160 195 172 139 122 139 124 143 203 30 280 236 174 142 159 193 167 147 261 249 234 236 205 188 167 158 186 197 199 202 205 205 204 208 213 215
217 219 221 222 222 223 225 226 228 231 232 231 230 227 228 227 225 222 221 223 219 217 222 223 216 211 218 240 223 207 203 201 190 197 213 195 184 178 180 185 185 187 191 185 178 185 190 181 164 147 86 123 161 144 55 32 122 150 143 215 173 167 259 267 184 147 164 213 150 146 245 254 249 251 225 211 175 169 202 212 207 207 209 208 205 210 217 215
218 219 220 220 221 222 223 225 226 228 231 231 229 227 226 226 225 223 221 220 218 217 217 219 214 208 233 251 226 197 192 186 185 194 203 192 178 167 166 167 169 175 177 172 170 178 169 155 144 130 158 123 127 118 81 12 328 159 182 205 178 191 254 298 230 171 178 212 137 150 227 266 268 261 249 230 184 187 211 215 212 213 211 210 210 212 218 222
218 219 220 220 220 222 222 224 225 226 229 230 228 228 225 225 224 222 222 217 214 214 208 211 210 204 253 254 195 177 173 184 196 197 201 192 182 170 151 143 141 149 148 136 145 149 122 116 129 163 132 101 157 138 107 164 251 220 202 191 177 188 214 290 262 208 189 149 170 200 226 266 276 250 275 311 184 194 219 227 224 221 221 216 214 216 217 225
218 220 220 219 221 223 223 224 225 225 228 229 227 227 224 223 222 222 223 217 213 209 203 208 201 199 252 259 159 175 179 194 197 191 192 193 187 169 147 133 121 127 126 109 125 132 95 73 141 216 111 110 159 136 163 207 212 208 199 201 202 187 183 206 270 255 197 169 204 213 233 242 242 253 285 353 158 181 219 234 234 228 230 224 218 224 222 224
218 219 218 219 221 223 223 224 224 224 226 227 225 225 223 220 218 219 220 216 210 204 208 217 197 191 235 217 192 185 182 187 185 182 185 187 182 171 157 141 125 120 114 95 127 139 103 45 105 159 148 167 167 173 202 209 193 188 191 193 208 189 190 199 223 210 176 206 223 198 235 245 248 269 272 264 157 178 223 229 238 237 232 230 221 221 224 224
216 218 218 218 220 220 221 222 223 224 224 225 223 221 219 213 212 216 213 208 200 194 209 202 192 213 237 202 211 193 175 175 172 174 177 175 176 173 158 140 135 131 128 146 183 166 145 112 136 187 192 195 192 196 205 195 176 183 181 179 180 201 216 204 215 212 173 190 229 210 233 245 247 258 258 253 193 205 244 242 249 249 240 238 227 223 226 226
215 218 217 217 220 218 219 220 222 222 220 221 214 205 203 192 194 208 206 207 202 211 237 165 189 223 256 179 176 153 153 167 162 163 171 170 166 162 151 141 141 142 154 166 170 169 164 164 193 206 201 197 197 200 202 163 154 157 155 183 198 208 231 205 209 241 178 179 233 223 237 252 247 250 253 253 211 221 251 250 247 245 240 239 231 229 227 227
214 218 217 218 220 218 218 218 220 220 218 215 203 194 191 180 181 179 167 209 214 211 239 164 193 217 222 116 156 148 140 175 169 160 168 166 157 156 164 154 152 170 174 154 139 151 171 191 209 207 195 188 186 185 172 151 151 153 167 191 208 213 227 211 205 231 163 176 245 229 245 257 250 253 259 257 225 228 236 238 243 239 236 235 231 234 232 233
214 218 217 218 220 219 218 217 218 217 214 210 201 202 211 191 194 187 168 196 214 204 215 178 202 218 180 138 168 158 149 172 181 164 161 160 159 168 181 170 168 177 164 139 129 150 184 212 212 198 177 164 166 170 163 161 166 169 172 182 209 209 219 270 234 191 154 181 251 239 245 256 254 256 262 254 236 235 230 229 236 236 236 234 228 231 236 239
214 217 218 218 219 220 218 217 218 213 208 207 202 207 211 199 198 186 167 165 215 201 208 198 203 202 173 180 176 170 175 174 168 170 164 160 169 177 174 178 178 162 151 160 162 167 192 218 204 183 170 163 165 179 177 160 173 180 171 178 205 170 152 236 241 177 170 179 197 229 268 267 262 264 263 251 235 238 239 234 236 234 234 236 230 228 230 233
215 217 219 218 218 220 219 217 216 211 207 206 207 210 207 199 194 178 155 56 219 197 207 216 240 202 182 158 171 180 199 182 167 171 172 165 157 172 176 177 174 157 166 181 181 183 198 208 174 173 178 169 165 180 185 185 182 194 193 189 186 155 171 205 181 133 151 274 107 69 321 278 240 241 258 253 214 231 241 237 242 239 232 236 239 237 231 230
216 217 219 217 219 221 218 215 212 210 207 203 209 212 204 197 192 181 160 107 213 199 200 201 251 218 189 138 174 179 179 200 184 171 174 169 157 161 182 181 173 172 183 185 184 193 206 163 158 168 174 170 172 184 190 191 185 215 216 187 156 151 166 161 137 113 92 278 260 114 289 277 235 226 251 259 198 235 238 232 241 241 232 231 237 243 238 235
215 216 218 217 220 219 214 213 209 208 205 203 209 207 198 193 189 180 156 20 215 209 176 175 181 190 180 164 170 158 171 208 185 170 176 173 165 162 173 175 181 186 184 182 187 195 199 178 158 159 168 173 181 192 189 181 186 222 189 153 140 132 136 150 153 153 183 242 279 158 209 266 282 233 241 246 238 250 250 241 245 242 238 231 227 237 236 235
214 217 218 218 220 213 207 202 200 200 201 205 205 200 192 185 178 169 148 261 216 162 150 169 181 173 169 171 161 155 175 146 127 177 188 176 166 135 160 168 175 190 171 160 207 193 163 169 159 161 169 174 188 198 187 176 184 216 150 149 152 114 116 154 160 190 224 262 319 174 174 261 270 249 240 222 240 265 267 256 251 237 235 236 230 234 235 235
216 218 219 221 221 213 209 196 182 193 209 203 196 195 191 178 167 155 165 231 188 124 140 167 169 154 146 157 169 198 205 133 145 189 187 181 174 111 162 180 177 175 162 170 201 188 165 172 168 166 170 181 196 191 170 168 179 222 134 145 145 108 107 118 130 173 318 341 251 218 135 233 261 263 307 176 233 258 258 251 249 237 230 233 235 238 238 239
217 220 220 221 223 218 214 204 190 203 208 196 189 190 187 174 159 138 211 223 142 125 152 153 159 144 121 138 169 230 252 148 168 174 169 185 192 88 160 186 179 168 173 190 199 176 167 176 168 166 173 187 180 142 151 166 177 136 109 101 84 77 75 68 88 106 45 288 230 203 174 219 263 253 214 137 220 242 250 249 246 241 237 234 235 240 239 240
219 221 222 220 222 216 209 208 211 209 198 187 183 179 172 166 150 153 214 212 117 143 148 159 172 148 139 149 171 213 223 247 268 155 160 179 187 128 77 143 160 161 179 194 187 148 152 154 158 165 179 171 120 113 152 158 141 116 99 82 67 46 46 54 46 79 60 263 224 192 185 202 267 250 191 193 209 219 238 251 248 245 250 246 236 234 236 237
221 223 222 219 218 209 200 206 209 201 188 178 170 160 155 164 165 185 205 181 103 162 153 162 167 154 163 174 181 200 205 230 226 166 159 166 175 164 120 128 127 155 183 184 158 155 141 139 160 173 166 141 115 112 123 131 141 128 104 110 105 35 26 35 9 62 202 249 225 189 174 180 241 244 176 216 226 214 226 236 237 232 239 246 242 240 239 237
223 223 221 220 215 204 202 205 195 187 176 167 158 145 153 183 192 193 176 150 177 186 164 156 163 169 177 183 197 199 187 200 214 184 166 166 177 175 171 175 161 160 187 177 159 155 151 165 172 156 152 145 135 129 99 133 161 146 127 144 148 148 145 200 223 146 220 246 287 173 152 185 240 245 216 242 245 236 235 230 229 226 230 241 246 250 251 247
224 223 223 222 211 203 208 204 187 174 164 160 154 148 178 197 199 180 152 167 214 193 160 155 164 174 173 183 205 199 184 198 199 199 184 172 177 183 181 180 174 178 181 163 164 155 160 191 169 143 150 160 153 149 155 167 172 174 166 166 177 172 183 206 197 193 236 237 303 157 150 236 264 261 231 238 240 238 238 235 234 232 234 242 246 253 262 262
225 224 226 223 211 207 208 195 176 167 159 157 158 165 184 210 186 169 170 203 248 179 157 157 164 171 175 191 203 187 191 211 183 198 207 177 177 185 183 180 180 185 147 159 178 166 169 194 176 169 168 169 171 172 171 161 167 188 176 164 198 189 188 208 194 199 219 175 316 203 173 208 219 258 247 238 247 253 251 248 246 246 244 247 257 264 266 266
224 223 226 219 210 209 200 181 169 165 160 161 169 177 191 197 170 175 177 178 229 175 153 157 163 169 183 199 204 191 196 207 176 197 229 190 182 180 176 180 179 174 147 164 190 175 184 219 176 172 159 165 177 175 157 141 156 194 154 160 223 199 151 157 200 188 137 110 252 217 231 223 201 280 280 251 253 255 251 252 247 251 252 251 259 258 255 259
221 221 220 208 205 203 189 174 167 164 162 167 173 188 197 183 171 185 165 152 191 164 149 159 167 171 186 197 203 197 202 209 176 187 236 212 195 183 178 182 178 174 168 168 169 174 195 218 170 163 156 174 179 164 159 159 156 167 172 190 207 120 109 100 260 6 72 201 236 185 244 286 325 283 269 249 257 259 251 246 233 237 244 243 247 246 245 248
208 204 204 202 201 195 182 173 167 163 164 176 182 189 188 180 197 179 155 153 171 160 153 164 173 173 183 192 200 191 191 205 178 175 214 214 206 188 182 185 181 180 178 171 176 190 183 182 172 168 173 185 176 149 164 176 144 154 191 188 128 81 98 106 170 11 46 239 264 213 234 261 293 261 256 236 249 254 252 249 242 237 228 233 244 243 242 242
177 169 196 202 191 185 177 172 169 165 165 180 190 189 156 170 203 177 164 156 159 164 163 165 173 177 185 188 194 185 182 188 177 173 196 199 220 194 181 178 183 188 187 175 178 204 163 99 206 190 179 175 141 128 163 208 22 157 180 164 139 167 207 155 174 189 190 234 281 279 250 243 219 226 222 225 234 239 248 253 254 249 227 227 241 241 244 247
146 150 250 191 178 177 173 170 170 169 169 183 197 195 152 125 176 306 276 169 141 161 168 161 151 176 194 189 185 182 184 190 183 177 190 181 179 201 185 172 179 190 191 183 184 200 169 146 194 217 163 146 145 158 178 194 325 18 117 146 166 196 191 191 190 166 181 226 269 281 289 244 222 194 178 220 235 234 244 248 241 241 232 225 231 230 234 236
132 144 281 185 171 171 169 167 169 179 178 188 194 179 125 124 153 352 303 244 122 153 170 161 157 171 186 192 191 183 186 196 194 187 190 174 151 192 195 181 175 185 191 194 198 188 173 176 163 129 124 152 171 194 187 184 178 152 161 177 198 201 172 190 203 124 142 202 241 261 264 254 239 176 182 211 233 237 237 238 230 233 234 230 230 228 223 222
147 145 253 198 166 163 164 162 168 179 177 175 154 136 127 138 126 79 302 292 85 104 133 126 147 165 170 186 194 184 183 197 201 194 188 180 172 187 198 189 176 178 184 197 207 187 169 189 165 151 166 176 188 200 197 192 184 177 185 186 187 189 170 186 212 188 132 203 194 209 259 261 236 184 191 200 219 233 240 251 247 229 228 234 234 230 221 215
173 150 205 194 166 157 157 146 122 154 159 146 127 106 128 123 101 130 280 321 67 65 56 87 106 131 155 195 199 177 175 192 202 199 180 186 195 194 189 188 182 177 180 190 200 188 119 121 141 140 174 192 202 198 163 180 191 198 208 187 175 180 177 193 213 197 165 221 171 129 270 272 211 183 197 198 215 235 250 273 262 230 227 237 241 241 234 222
178 127 150 184 175 160 148 140 141 119 91 134 110 68 102 109 102 139 207 343 81 72 57 90 109 116 156 194 172 178 181 188 203 201 179 180 200 200 183 183 180 177 183 188 192 190 81 110 133 111 136 329 346 91 53 62 189 206 229 181 162 183 195 200 203 175 169 212 206 220 261 263 234 191 210 226 253 276 279 259 240 240 246 251 251 248 241 236
154 86 99 186 193 176 158 161 152 132 120 123 106 87 89 75 88 126 139 76 75 95 101 127 167 102 139 128 95 190 195 193 204 203 188 177 193 193 183 184 182 180 188 190 181 183 187 170 159 143 159 137 50 106 22 1 200 196 204 193 182 188 189 172 135 148 192 209 197 210 249 255 260 141 239 278 307 298 275 252 229 235 248 254 257 250 235 239
136 90 71 136 195 175 182 188 148 137 135 126 119 123 110 81 59 68 110 105 40 107 114 120 130 98 109 119 78 6 254 218 202 194 177 175 193 195 185 188 188 187 198 196 177 176 190 181 173 170 172 176 178 187 194 192 190 193 192 191 191 189 183 175 188 194 209 214 194 198 238 248 43 59 275 287 297 284 275 270 249 225 229 239 252 253 234 224
145 120 135 117 40 84 297 271 138 135 138 132 124 126 116 107 91 30 75 93 4 76 89 78 126 101 98 126 99 53 329 328 287 177 164 174 195 229 193 188 190 195 200 192 166 160 173 184 193 194 191 193 197 199 191 180 181 189 190 192 194 193 189 188 199 201 206 217 208 209 228 234 141 24 277 283 276 269 275 287 282 245 234 240 247 254 243 220
144 124 145 149 125 132 120 118 130 131 143 139 126 129 119 114 122 70 35 75 197 103 75 59 110 124 152 153 128 139 160 349 318 195 171 171 185 313 233 194 193 197 197 185 164 160 152 198 202 205 212 211 200 155 158 169 184 193 194 198 199 196 194 194 205 209 205 214 222 218 226 232 229 255 276 264 256 264 268 272 275 264 249 245 251 263 260 244
160 118 133 150 136 148 146 146 141 129 129 124 88 111 127 119 121 117 73 82 88 68 72 74 115 166 169 164 146 144 149 97 327 229 173 146 147 76 344 212 204 197 191 181 181 179 174 207 204 204 216 216 180 112 155 173 191 199 198 202 202 199 199 201 211 216 209 212 229 226 225 230 227 232 258 251 233 235 244 249 265 280 272 261 259 260 255 247
146 106 88 3 69 120 123 129 131 123 122 122 98 112 131 120 118 132 130 104 76 344 100 138 166 174 171 172 150 143 165 156 168 227 223 168 168 144 137 189 220 204 189 174 187 193 188 212 207 203 215 215 186 148 170 178 192 205 205 204 203 201 204 209 217 224 222 225 239 242 242 241 224 207 228 244 232 211 222 259 284 275 266 258 252 247 244 241
152 136 143 102 85 98 111 119 125 120 111 104 105 123 133 122 125 129 92 91 120 165 176 136 142 135 134 156 142 161 194 173 160 199 190 161 178 175 158 173 191 197 194 178 180 208 214 213 203 195 211 216 195 175 182 181 190 204 208 206 203 200 206 216 224 229 232 236 244 250 255 255 236 201 206 230 238 225 224 229 231 249 253 236 228 237 239 238
135 100 114 117 110 111 125 127 124 120 112 87 120 135 134 133 143 133 80 43 108 146 159 141 133 113 90 123 148 181 219 160 153 201 180 171 196 195 175 198 173 181 192 182 172 196 212 212 198 189 211 214 190 193 200 188 191 205 207 200 194 194 203 213 219 221 218 219 229 237 242 246 239 201 186 208 221 231 241 236 223 240 245 228 228 240 241 240
110 75 64 104 103 92 130 134 128 127 130 136 131 133 136 145 154 138 102 51 28 74 119 132 128 112 100 136 164 148 131 120 94 199 159 154 190 135 128 147 144 150 179 182 177 184 193 207 200 186 206 214 194 198 202 193 199 211 205 193 189 195 204 210 217 222 217 212 219 225 230 238 230 154 172 203 203 215 232 236 232 239 240 234 236 241 249 253